Location: Allaines
(49.9632°N, 2.9458°E)
Time: 09:04:10
(UTC+00:00)

STARLINK-1188 - Pass Details

Date: 09 April 2020
Orbit: 378 x 381 km, 53.0° (Epoch: 02 June)

Event Time Altitude Azimuth Distance (km) Brightness Sun altitude
Rises 19:47:08 0° 291° (WNW) 2,222 8.8 -11.9°
Reaches altitude 10° 19:49:12 10° 285° (WNW) 1,373 7.0 -12.2°
Maximum altitude 19:52:09 45° 211° (SSW) 517 3.5 -12.6°
Enters shadow 19:53:47 22° 148° (SSE) 874 4.1 -12.8°
